Date,Time,Wetness (Wet Dry or Ice),Wind Speed (m/s),Temperature (C),Humidity (%),Pressure (mb),Radiation (W/m^2)
2019-02-10,04:15:00,DRY,2.55,6.75,12.0,774.00,1.2
2019-02-10,04:20:00,DRY,3.07,6.67,12.3,774.00,0.9
2019-02-10,04:25:00,DRY,3.80,6.65,12.5,774.00,1.2
2019-02-10,04:30:00,DRY,3.13,6.73,12.3,774.00,0.7
2019-02-10,04:35:00,DRY,2.75,6.90,12.0,774.00,0.6
2019-02-10,04:40:00,DRY,3.70,6.70,12.0,774.00,1.3
2019-02-10,04:45:00,DRY,2.70,6.40,13.0,774.00,1.4
2019-02-10,04:50:00,DRY,3.53,6.13,13.0,774.33,1.1
2019-02-10,04:55:00,DRY,3.45,6.00,13.0,774.00,0.9
2019-02-10,05:00:00,DRY,3.03,6.03,12.7,774.00,1.5
2019-02-10,05:05:00,DRY,1.25,6.10,12.0,774.50,0.1
2019-02-10,05:10:00,DRY,2.57,6.07,12.3,774.00,1.5
2019-02-10,05:15:00,DRY,3.05,6.00,12.0,774.00,0.6
2019-02-10,05:20:00,DRY,2.43,6.10,11.0,774.00,1.3
2019-02-10,05:25:00,DRY,2.15,5.95,11.0,774.50,1.3
2019-02-10,05:30:00,DRY,2.33,5.97,10.3,774.00,1.6
2019-02-10,05:35:00,DRY,2.45,6.20,9.5,774.00,1.1
2019-02-10,05:40:00,DRY,2.87,6.03,10.0,774.33,2.2
2019-02-10,05:45:00,DRY,2.95,5.95,10.0,775.00,1.1
2019-02-10,05:50:00,DRY,2.97,5.97,10.0,774.67,1.8
2019-02-10,05:55:00,DRY,2.50,5.95,10.0,774.50,0.8
2019-02-10,06:00:00,DRY,2.83,6.53,9.7,775.00,1.3
2019-02-10,06:05:00,DRY,2.40,6.60,9.0,775.00,0.9
2019-02-10,06:10:00,DRY,1.87,6.20,10.0,775.00,0.5
2019-02-10,06:15:00,DRY,2.10,6.35,10.0,775.00,1.6
2019-02-10,06:20:00,DRY,1.93,6.30,10.0,775.00,0.2
2019-02-10,06:25:00,DRY,1.85,6.25,9.5,775.00,0.8
2019-02-10,06:30:00,DRY,1.87,6.30,9.0,775.00,0.8
2019-02-10,06:35:00,DRY,2.25,6.25,9.0,775.00,1.3
2019-02-10,06:40:00,DRY,2.70,6.07,8.3,775.00,0.9
2019-02-10,06:45:00,DRY,3.00,6.10,8.0,775.00,1.2
2019-02-10,06:50:00,DRY,2.23,5.90,8.3,775.00,0.3
2019-02-10,06:55:00,DRY,2.10,6.10,7.0,775.00,2.2
2019-02-10,07:00:00,DRY,2.47,5.93,7.7,775.00,0.5
2019-02-10,07:05:00,DRY,2.65,5.80,7.5,775.00,1.2
2019-02-10,07:10:00,DRY,2.43,5.80,8.0,775.00,0.9
2019-02-10,07:15:00,DRY,1.85,5.85,7.5,775.00,1.0
2019-02-10,07:20:00,DRY,2.50,5.97,7.0,775.00,1.4
2019-02-10,07:25:00,DRY,1.75,5.85,6.5,775.00,1.5
2019-02-10,07:30:00,DRY,2.85,5.90,6.0,775.00,1.3
2019-02-10,07:35:00,DRY,3.60,6.15,6.0,775.00,1.6
2019-02-10,07:40:00,DRY,3.40,6.40,6.0,775.00,2.1
2019-02-10,07:45:00,DRY,2.45,6.45,6.0,775.00,2.7
2019-02-10,07:50:00,DRY,3.17,6.23,6.3,775.00,5.0
2019-02-10,07:55:00,DRY,3.35,6.30,6.0,775.00,6.8
2019-02-10,08:00:00,DRY,3.07,6.60,5.3,775.00,9.1
2019-02-10,08:05:00,DRY,2.65,6.75,5.5,775.00,11.9
2019-02-10,08:10:00,DRY,2.40,6.70,5.0,775.00,13.3
2019-02-10,08:15:00,DRY,2.90,6.75,5.0,775.00,15.2
2019-02-10,08:20:00,DRY,2.90,6.80,5.0,775.00,18.3
2019-02-10,08:25:00,DRY,1.95,6.90,4.0,775.00,18.6
2019-02-10,08:30:00,DRY,2.67,6.73,5.3,775.00,43.3
2019-02-10,08:35:00,DRY,3.10,6.75,6.5,775.00,160.8
2019-02-10,08:40:00,DRY,2.87,6.70,7.0,775.00,180.5
2019-02-10,08:45:00,DRY,2.80,6.80,6.0,775.00,201.4
2019-02-10,08:50:00,DRY,2.37,6.87,6.0,775.33,221.9
2019-02-10,08:55:00,DRY,1.85,7.00,7.0,775.00,241.1
2019-02-10,09:00:00,DRY,3.40,7.30,6.3,775.00,262.3
2019-02-10,09:05:00,DRY,2.10,7.40,7.0,775.00,282.2
2019-02-10,09:10:00,DRY,2.27,7.30,7.0,775.00,302.4
2019-02-10,09:15:00,DRY,2.75,7.15,7.5,775.00,323.1
2019-02-10,09:20:00,DRY,3.07,7.00,8.7,775.00,343.9
2019-02-10,09:25:00,DRY,3.15,7.10,9.5,775.00,364.1
2019-02-10,09:30:00,DRY,2.93,7.07,9.3,775.00,383.3
2019-02-10,09:35:00,DRY,2.25,7.55,8.5,775.00,402.5
2019-02-10,09:40:00,DRY,3.43,7.83,8.0,775.00,422.7
2019-02-10,09:45:00,DRY,2.10,8.15,7.5,775.00,441.0
2019-02-10,09:50:00,DRY,3.80,8.30,6.3,775.33,460.4
2019-02-10,09:55:00,DRY,3.10,8.55,5.5,775.00,479.0
2019-02-10,10:00:00,DRY,3.43,8.53,8.3,775.67,497.2
2019-02-10,10:05:00,DRY,4.10,8.50,9.0,775.00,515.8
2019-02-10,10:10:00,DRY,3.30,8.40,9.0,776.00,534.4
2019-02-10,10:15:00,DRY,1.95,8.40,11.0,776.00,550.5
2019-02-10,10:20:00,DRY,3.87,8.47,11.7,776.00,566.4
2019-02-10,10:25:00,DRY,2.85,8.60,9.0,776.00,582.9
2019-02-10,10:30:00,DRY,3.23,8.53,10.3,776.00,598.7
2019-02-10,10:35:00,DRY,2.15,8.65,12.5,776.00,613.8
2019-02-10,10:40:00,DRY,3.73,8.67,12.0,776.00,629.4
2019-02-10,10:45:00,DRY,1.95,8.80,11.0,776.00,646.2
2019-02-10,10:50:00,DRY,2.93,8.83,14.0,776.00,658.7
2019-02-10,10:55:00,DRY,2.30,8.70,14.5,776.00,672.5
2019-02-10,11:00:00,DRY,2.33,8.90,14.0,776.00,686.4
2019-02-10,11:05:00,DRY,2.30,9.30,13.5,776.00,699.0
2019-02-10,11:10:00,DRY,2.23,9.27,14.0,776.00,711.7
2019-02-10,11:15:00,DRY,2.60,9.00,14.0,776.00,724.8
2019-02-10,11:20:00,DRY,3.57,8.97,13.0,776.00,735.7
2019-02-10,11:25:00,DRY,1.60,8.95,13.5,776.00,746.5
2019-02-10,11:30:00,DRY,2.37,9.27,12.3,776.00,757.2
2019-02-10,11:35:00,DRY,1.55,9.55,11.5,776.00,767.3
2019-02-10,11:40:00,DRY,1.83,9.53,11.7,776.00,777.7
2019-02-10,11:45:00,DRY,2.80,9.60,13.0,776.00,787.8
2019-02-10,11:50:00,DRY,2.53,9.73,12.7,776.00,797.3
2019-02-10,11:55:00,DRY,1.75,9.65,14.5,776.00,804.5
2019-02-10,12:00:00,DRY,2.77,9.37,14.3,776.00,813.5
2019-02-10,12:05:00,DRY,2.00,9.35,15.0,776.00,821.5
2019-02-10,12:10:00,DRY,1.70,9.47,14.7,776.00,828.4
2019-02-10,12:15:00,DRY,3.15,9.50,15.5,776.00,837.8
2019-02-10,12:20:00,DRY,2.47,9.67,16.0,775.67,842.3
2019-02-10,12:25:00,DRY,1.85,9.90,15.0,775.00,849.4
2019-02-10,12:30:00,DRY,3.20,10.07,15.3,775.00,853.0
2019-02-10,12:35:00,DRY,2.05,9.50,17.0,775.50,858.0
2019-02-10,12:40:00,DRY,3.67,9.50,17.0,775.00,861.7
2019-02-10,12:45:00,DRY,3.45,9.70,18.5,775.00,866.4
2019-02-10,12:50:00,DRY,1.93,9.77,18.0,775.00,869.8
2019-02-10,12:55:00,DRY,1.75,10.05,17.0,775.00,873.4
2019-02-10,13:00:00,DRY,1.93,10.07,15.7,775.00,875.8
2019-02-10,13:05:00,DRY,2.70,9.95,19.0,775.00,876.9
2019-02-10,13:10:00,DRY,2.20,9.73,19.3,775.00,879.1
2019-02-10,13:15:00,DRY,1.55,9.80,19.0,775.00,877.2
2019-02-10,13:20:00,DRY,3.17,9.80,21.3,775.00,878.2
2019-02-10,13:25:00,DRY,2.00,9.80,23.0,775.00,880.0
2019-02-10,13:30:00,DRY,2.20,9.50,24.0,775.00,880.4
2019-02-10,13:35:00,DRY,1.50,10.00,20.0,775.00,876.3
2019-02-10,13:40:00,DRY,1.50,10.07,21.7,775.00,878.4
2019-02-10,13:45:00,DRY,2.75,10.10,21.0,775.00,875.4
2019-02-10,13:50:00,DRY,2.43,10.03,20.7,775.00,874.1
2019-02-10,13:55:00,DRY,1.50,9.95,22.5,775.00,871.3
2019-02-10,14:00:00,DRY,2.83,9.63,24.3,775.00,866.3
2019-02-10,14:05:00,DRY,1.70,9.70,23.0,775.00,862.0
2019-02-10,14:10:00,DRY,2.33,9.87,23.3,775.00,858.7
2019-02-10,14:15:00,DRY,1.90,9.15,23.0,775.00,853.0
2019-02-10,14:20:00,DRY,2.83,9.47,23.7,775.00,847.6
2019-02-10,14:25:00,DRY,3.20,9.20,22.0,775.00,842.0
2019-02-10,14:30:00,DRY,2.83,9.57,22.0,775.00,835.6
2019-02-10,14:35:00,DRY,0.80,9.90,21.5,775.00,829.9
2019-02-10,14:40:00,DRY,2.63,9.83,20.3,775.00,823.1
2019-02-10,14:45:00,DRY,1.45,10.05,23.0,775.00,812.6
2019-02-10,14:50:00,DRY,2.07,9.77,21.3,775.00,807.6
2019-02-10,14:55:00,DRY,1.90,9.80,22.5,775.00,797.7
2019-02-10,15:00:00,DRY,1.17,10.30,20.7,775.00,789.0
2019-02-10,15:05:00,DRY,1.50,10.20,22.5,775.00,779.8
2019-02-10,15:10:00,DRY,2.13,9.93,21.7,775.00,768.4
2019-02-10,15:15:00,DRY,1.05,10.30,20.5,775.00,761.1
2019-02-10,15:20:00,DRY,1.67,10.23,20.3,775.00,748.3
2019-02-10,15:25:00,DRY,0.55,10.15,17.0,775.00,736.7
2019-02-10,15:30:00,DRY,2.93,9.83,18.7,775.00,725.1
2019-02-10,15:35:00,DRY,2.15,10.05,17.5,775.00,713.0
2019-02-10,15:40:00,DRY,0.83,10.17,24.0,775.00,700.2
2019-02-10,15:45:00,DRY,1.80,10.05,24.5,775.00,687.8
2019-02-10,15:50:00,DRY,1.63,9.90,21.7,775.00,674.3
2019-02-10,15:55:00,DRY,0.75,9.60,22.5,775.00,660.4
2019-02-10,16:00:00,DRY,1.90,9.53,19.3,775.00,645.4
2019-02-10,16:05:00,DRY,2.75,9.75,17.5,775.00,630.8
2019-02-10,16:10:00,DRY,1.67,9.73,17.0,774.67,614.9
2019-02-10,16:15:00,DRY,1.45,9.65,16.5,775.00,600.0
2019-02-10,16:20:00,DRY,1.63,9.57,16.7,775.00,583.2
2019-02-10,16:25:00,DRY,1.60,9.70,18.0,774.50,568.1
2019-02-10,16:30:00,DRY,1.67,9.83,19.3,774.67,550.6
2019-02-10,16:35:00,DRY,1.95,9.60,20.0,775.00,533.2
2019-02-10,16:40:00,DRY,1.60,9.57,18.7,775.00,517.7
2019-02-10,16:45:00,DRY,1.85,9.35,19.5,775.00,499.3
2019-02-10,16:50:00,DRY,2.13,9.20,21.3,775.00,480.9
2019-02-10,16:55:00,DRY,1.50,9.20,18.5,775.00,459.7
2019-02-10,17:00:00,DRY,2.63,9.27,17.0,775.00,443.7
2019-02-10,17:05:00,DRY,1.75,9.00,18.5,775.00,425.8
2019-02-10,17:10:00,DRY,1.93,8.97,20.7,775.00,407.1
2019-02-10,17:15:00,DRY,1.25,8.90,21.5,775.00,378.4
2019-02-10,17:20:00,DRY,1.87,8.90,19.3,775.00,355.8
2019-02-10,17:25:00,DRY,1.95,8.80,18.0,775.00,349.2
2019-02-10,17:30:00,DRY,1.60,8.93,18.3,775.00,329.1
2019-02-10,17:35:00,DRY,2.40,8.90,18.0,774.50,309.4
2019-02-10,17:40:00,DRY,2.63,8.83,17.0,774.67,289.5
2019-02-10,17:45:00,DRY,1.35,8.95,16.5,774.50,270.8
2019-02-10,17:50:00,DRY,1.87,8.93,14.3,775.00,251.1
2019-02-10,17:55:00,DRY,1.90,9.00,15.5,775.00,231.9
2019-02-10,18:00:00,DRY,1.37,8.90,16.3,774.67,207.8
2019-02-10,18:05:00,DRY,3.50,8.90,13.5,774.50,185.6
2019-02-10,18:10:00,DRY,1.47,8.77,15.0,774.67,169.4
2019-02-10,18:15:00,DRY,1.65,8.40,16.5,775.00,151.4
2019-02-10,18:20:00,DRY,2.10,8.30,15.0,774.67,125.1
2019-02-10,18:25:00,DRY,2.20,8.15,14.5,775.00,98.8
2019-02-10,18:30:00,DRY,2.70,8.10,14.0,775.00,74.3
2019-02-10,18:35:00,DRY,2.00,7.95,12.5,775.00,48.2
2019-02-10,18:40:00,DRY,1.77,7.73,12.7,775.00,16.2
2019-02-10,18:45:00,DRY,2.45,7.60,14.0,775.00,11.1
2019-02-10,18:50:00,DRY,2.57,7.60,13.3,775.00,8.4
2019-02-10,18:55:00,DRY,3.40,7.40,12.0,775.00,5.2
2019-02-10,19:00:00,DRY,2.30,7.77,11.0,775.00,3.8
2019-02-10,19:05:00,DRY,2.10,8.00,10.0,775.00,2.4
2019-02-10,19:10:00,DRY,2.33,7.87,8.7,775.00,2.7
2019-02-10,19:15:00,DRY,2.15,8.10,7.5,775.00,0.8
2019-02-10,19:20:00,DRY,1.87,7.97,9.0,775.00,2.0
2019-02-10,19:25:00,DRY,2.30,7.90,9.5,775.00,0.5
2019-02-10,19:30:00,DRY,1.53,7.77,9.3,775.00,1.7
2019-02-10,19:35:00,DRY,1.65,7.75,9.5,775.00,0.9
2019-02-10,19:40:00,DRY,1.73,7.73,9.7,775.00,1.0
2019-02-10,19:45:00,DRY,2.00,7.60,10.0,775.00,0.1
2019-02-10,19:50:00,DRY,2.13,7.63,9.7,775.00,0.9
2019-02-10,19:55:00,DRY,3.60,7.85,9.0,775.00,1.2
2019-02-10,20:00:00,DRY,3.00,8.07,8.3,775.00,0.8
2019-02-10,20:05:00,DRY,3.40,8.20,8.0,775.00,0.8
2019-02-10,20:10:00,DRY,4.20,8.07,8.0,775.00,1.3
2019-02-10,20:15:00,DRY,3.40,8.10,8.0,775.00,1.5
2019-02-10,20:20:00,DRY,3.93,8.07,8.0,775.00,1.2
2019-02-10,20:25:00,DRY,2.70,7.95,8.0,775.00,1.9
2019-02-10,20:30:00,DRY,4.30,7.90,7.3,775.33,1.4
2019-02-10,20:35:00,DRY,3.60,7.80,6.0,776.00,2.1
2019-02-10,20:40:00,DRY,4.10,7.93,6.0,775.67,1.0
2019-02-10,20:45:00,DRY,1.65,8.05,6.0,776.00,2.4
2019-02-10,20:50:00,DRY,0.93,8.00,6.0,776.00,1.0
2019-02-10,20:55:00,DRY,2.85,7.90,5.5,776.00,0.8
2019-02-10,21:00:00,DRY,2.43,8.00,5.0,776.00,0.9
2019-02-10,21:05:00,DRY,2.75,8.15,5.0,775.00,2.5
2019-02-10,21:10:00,DRY,2.60,8.17,5.0,775.67,1.2
2019-02-10,21:15:00,DRY,4.15,8.25,4.5,776.00,1.2
2019-02-10,21:20:00,DRY,2.80,8.23,5.0,775.33,1.1
2019-02-10,21:25:00,DRY,3.40,8.25,4.5,776.00,1.7
2019-02-10,21:30:00,DRY,6.17,8.27,4.3,775.33,1.7
2019-02-10,21:35:00,DRY,8.00,8.30,4.0,776.00,1.5
2019-02-10,21:40:00,DRY,4.30,8.13,4.0,775.67,1.2
2019-02-10,21:45:00,DRY,3.15,8.10,4.5,776.00,0.7
2019-02-10,21:50:00,DRY,4.17,8.03,4.7,775.33,1.4
2019-02-10,21:55:00,DRY,4.30,8.05,5.0,775.50,1.1
2019-02-10,22:00:00,DRY,4.60,8.10,4.3,776.00,1.2
2019-02-10,22:05:00,DRY,5.30,8.00,5.0,776.00,0.9
2019-02-10,22:10:00,DRY,3.93,8.03,4.7,776.00,1.3
2019-02-10,22:15:00,DRY,3.05,8.05,4.5,776.00,0.8
2019-02-10,22:20:00,DRY,4.60,7.80,5.0,776.00,1.4
2019-02-10,22:25:00,DRY,4.40,7.85,5.0,776.00,1.0
2019-02-10,22:30:00,DRY,3.30,8.03,5.0,776.00,1.4
2019-02-10,22:35:00,DRY,5.55,8.00,5.0,776.00,1.1
2019-02-10,22:40:00,DRY,4.60,7.83,5.0,775.67,1.1
2019-02-10,22:45:00,DRY,4.05,7.95,5.0,776.00,1.3
2019-02-10,22:50:00,DRY,2.77,7.83,5.0,776.00,1.7
2019-02-10,22:55:00,DRY,1.40,7.40,6.0,776.00,1.5
2019-02-10,23:00:00,DRY,1.23,7.07,6.7,776.00,1.0
2019-02-10,23:05:00,DRY,3.00,7.30,5.5,776.00,0.2
2019-02-10,23:10:00,DRY,1.53,7.50,5.3,776.00,0.8
2019-02-10,23:15:00,DRY,2.10,7.40,6.0,776.00,0.8
2019-02-10,23:20:00,DRY,1.57,7.23,6.0,776.00,0.8
2019-02-10,23:25:00,DRY,2.60,7.20,6.0,776.00,0.9
2019-02-10,23:30:00,DRY,1.57,7.13,6.0,776.00,0.9
2019-02-10,23:35:00,DRY,1.55,7.20,6.5,776.00,1.4
2019-02-10,23:40:00,DRY,2.70,6.97,7.3,776.00,1.1
2019-02-10,23:45:00,DRY,3.05,6.75,8.0,776.00,1.2
2019-02-10,23:50:00,DRY,2.87,6.53,9.7,775.67,1.7
2019-02-10,23:55:00,DRY,4.25,6.40,10.5,775.50,1.5
2019-02-11,00:00:00,DRY,4.40,6.10,11.7,775.33,1.0
2019-02-11,00:05:00,DRY,3.80,5.95,12.0,775.00,1.2
2019-02-11,00:10:00,DRY,5.73,5.80,13.0,775.33,1.5
2019-02-11,00:15:00,DRY,6.30,5.65,14.0,775.00,1.0
2019-02-11,00:20:00,DRY,6.47,5.53,14.0,775.00,1.4
2019-02-11,00:25:00,DRY,7.10,5.55,15.0,775.00,1.3
2019-02-11,00:30:00,DRY,6.23,5.47,16.7,775.00,1.2
2019-02-11,00:35:00,DRY,7.80,5.40,17.0,775.00,1.4
2019-02-11,00:40:00,DRY,6.10,5.47,16.7,775.00,1.2
2019-02-11,00:45:00,DRY,6.35,5.55,16.5,775.00,1.4
2019-02-11,00:50:00,DRY,6.40,5.53,16.3,775.00,1.6
2019-02-11,00:55:00,DRY,6.45,5.65,15.5,775.00,1.5
2019-02-11,01:00:00,DRY,4.53,5.67,15.3,775.00,1.1
2019-02-11,01:05:00,DRY,3.60,5.60,15.5,775.00,1.0
2019-02-11,01:10:00,DRY,6.37,5.70,16.0,775.00,1.1
2019-02-11,01:15:00,DRY,7.60,5.70,16.0,775.00,1.4
2019-02-11,01:20:00,DRY,7.97,5.70,17.3,775.00,1.2
2019-02-11,01:25:00,DRY,6.95,5.70,18.0,775.00,1.2
2019-02-11,01:30:00,DRY,5.53,5.70,19.3,775.00,1.5
2019-02-11,01:35:00,DRY,6.80,5.80,18.5,775.00,1.2
2019-02-11,01:40:00,DRY,8.20,5.83,19.3,774.67,1.2
2019-02-11,01:45:00,DRY,8.00,5.80,19.0,774.50,0.8
2019-02-11,01:50:00,DRY,7.30,5.80,20.0,774.67,1.7
2019-02-11,01:55:00,DRY,4.40,5.75,20.0,775.00,1.6
2019-02-11,02:00:00,DRY,6.53,5.73,20.0,775.00,1.2
2019-02-11,02:05:00,DRY,6.75,5.80,20.0,775.00,1.1
2019-02-11,02:10:00,DRY,7.13,5.77,20.0,775.00,1.8
2019-02-11,02:15:00,DRY,8.40,5.75,20.5,775.00,1.3
2019-02-11,02:20:00,DRY,5.30,5.63,21.3,775.00,1.2
2019-02-11,02:25:00,DRY,6.95,5.55,22.0,775.00,1.1
2019-02-11,02:30:00,DRY,4.93,5.80,21.0,775.00,1.4
2019-02-11,02:35:00,DRY,5.70,5.85,21.0,775.00,1.1
2019-02-11,02:40:00,DRY,8.47,5.77,22.0,775.00,1.3
2019-02-11,02:45:00,DRY,7.95,5.90,21.0,775.00,0.9
2019-02-11,02:50:00,DRY,7.97,6.00,21.0,775.00,1.1
2019-02-11,02:55:00,DRY,4.50,5.80,22.0,775.00,1.2
2019-02-11,03:00:00,DRY,6.53,5.90,22.0,775.00,1.0
2019-02-11,03:05:00,DRY,6.50,5.85,22.0,775.00,1.1
2019-02-11,03:10:00,DRY,6.03,5.93,21.7,775.00,1.2
2019-02-11,03:15:00,DRY,3.65,5.90,21.5,775.00,0.8
2019-02-11,03:20:00,DRY,4.73,6.03,21.0,775.00,1.3
2019-02-11,03:25:00,DRY,7.25,6.10,21.0,775.00,1.1
2019-02-11,03:30:00,DRY,6.23,5.90,22.0,774.33,1.2
2019-02-11,03:35:00,DRY,5.60,5.90,22.0,775.00,1.2
2019-02-11,03:40:00,DRY,4.70,6.03,21.3,775.00,1.0
2019-02-11,03:45:00,DRY,2.85,5.95,22.0,775.00,1.9
2019-02-11,03:50:00,DRY,4.37,6.00,22.0,775.00,1.7
2019-02-11,03:55:00,DRY,4.05,6.00,21.0,774.50,1.4
2019-02-11,04:00:00,DRY,4.90,5.93,22.0,775.00,1.1
2019-02-11,04:05:00,DRY,6.35,5.95,22.0,775.00,1.0
2019-02-11,04:10:00,DRY,4.57,5.97,21.7,775.00,0.9
2019-02-11,04:15:00,DRY,4.50,5.95,21.5,775.00,1.1
2019-02-11,04:20:00,DRY,5.47,5.93,21.7,775.00,1.2
2019-02-11,04:25:00,DRY,8.25,5.90,22.0,775.00,1.2
2019-02-11,04:30:00,DRY,5.70,5.80,22.0,775.00,1.0
2019-02-11,04:35:00,DRY,4.15,5.95,21.0,775.00,1.4
2019-02-11,04:40:00,DRY,4.77,5.80,22.0,775.00,1.0
2019-02-11,04:45:00,DRY,5.50,6.15,21.0,775.00,1.2
2019-02-11,04:50:00,DRY,5.03,5.90,21.3,775.00,1.2
2019-02-11,04:55:00,DRY,5.50,6.10,20.5,774.50,1.2
2019-02-11,05:00:00,DRY,5.97,5.97,21.7,774.67,1.0
2019-02-11,05:05:00,DRY,5.15,6.10,20.5,774.50,1.2
2019-02-11,05:10:00,DRY,6.47,6.10,21.3,775.00,1.3
2019-02-11,05:15:00,DRY,4.85,6.05,21.0,774.50,0.6
2019-02-11,05:20:00,DRY,5.20,6.03,21.3,775.00,1.2
2019-02-11,05:25:00,DRY,3.70,5.95,22.0,774.50,1.2
2019-02-11,05:30:00,DRY,3.43,6.00,21.3,774.67,1.5
2019-02-11,05:35:00,DRY,3.35,6.05,21.5,775.00,1.1
2019-02-11,05:40:00,DRY,5.20,5.80,22.3,775.00,1.6
2019-02-11,05:45:00,DRY,4.05,5.90,22.0,775.00,0.7
2019-02-11,05:50:00,DRY,5.60,5.93,22.0,775.00,1.2
2019-02-11,05:55:00,DRY,6.85,5.90,22.0,775.00,1.3
2019-02-11,06:00:00,DRY,6.23,6.17,21.3,775.00,1.5
2019-02-11,06:05:00,DRY,4.80,6.00,22.0,775.00,1.4
2019-02-11,06:10:00,DRY,4.67,6.23,21.3,775.00,1.8
2019-02-11,06:15:00,DRY,5.65,6.15,22.0,774.50,1.2
2019-02-11,06:20:00,DRY,3.67,6.20,22.0,775.00,1.1
2019-02-11,06:25:00,DRY,4.85,6.25,22.0,775.00,1.1
2019-02-11,06:30:00,DRY,7.97,6.17,22.0,775.00,0.9
2019-02-11,06:35:00,DRY,4.90,6.35,21.0,775.00,1.2
2019-02-11,06:40:00,DRY,5.10,6.33,21.3,775.00,1.3
2019-02-11,06:45:00,DRY,4.70,6.30,21.0,775.00,1.3
2019-02-11,06:50:00,DRY,3.03,6.10,22.3,775.00,0.9
2019-02-11,06:55:00,DRY,3.95,6.10,22.0,775.00,1.1
2019-02-11,07:00:00,DRY,4.20,6.17,22.0,775.00,0.9
2019-02-11,07:05:00,DRY,3.80,6.10,22.5,775.00,1.1
2019-02-11,07:10:00,DRY,4.37,6.13,22.0,775.00,1.3
2019-02-11,07:15:00,DRY,3.45,6.25,21.5,775.00,1.5
2019-02-11,07:20:00,DRY,5.67,6.33,21.3,775.00,1.3
2019-02-11,07:25:00,DRY,5.55,6.35,21.0,775.00,1.3
2019-02-11,07:30:00,DRY,5.03,6.37,21.0,775.00,1.3
2019-02-11,07:35:00,DRY,5.15,6.20,22.0,775.00,2.2
2019-02-11,07:40:00,DRY,4.43,6.13,22.0,775.00,2.6
2019-02-11,07:45:00,DRY,4.95,6.10,22.0,775.00,6.2
2019-02-11,07:50:00,DRY,5.53,6.00,22.0,775.00,6.4
2019-02-11,07:55:00,DRY,5.10,6.20,21.5,775.00,6.7
2019-02-11,08:00:00,DRY,4.10,5.97,22.7,775.33,10.7
2019-02-11,08:05:00,DRY,3.85,5.75,23.0,775.00,16.8
2019-02-11,08:10:00,DRY,4.10,5.90,23.0,775.00,26.1
2019-02-11,08:15:00,DRY,5.65,5.90,23.0,775.00,32.6
2019-02-11,08:20:00,DRY,3.90,5.97,23.0,775.00,35.4
2019-02-11,08:25:00,DRY,6.05,6.05,23.0,775.00,38.5
2019-02-11,08:30:00,DRY,4.03,6.00,23.0,775.67,58.9
2019-02-11,08:35:00,DRY,2.55,6.10,23.0,776.00,131.2
2019-02-11,08:40:00,DRY,4.47,6.27,23.0,776.00,150.8
2019-02-11,08:45:00,DRY,3.65,6.50,22.0,776.00,201.1
2019-02-11,08:50:00,DRY,3.50,6.63,21.7,776.00,215.9
2019-02-11,08:55:00,DRY,2.75,6.65,22.0,776.00,218.8
2019-02-11,09:00:00,DRY,4.40,6.80,21.7,776.00,281.4
2019-02-11,09:05:00,DRY,4.55,7.10,21.0,776.00,318.4
2019-02-11,09:10:00,DRY,6.37,7.10,21.0,776.00,327.9
2019-02-11,09:15:00,DRY,3.85,7.25,21.0,776.00,357.4
2019-02-11,09:20:00,DRY,5.27,7.30,20.7,776.00,350.5
2019-02-11,09:25:00,DRY,2.50,7.40,21.0,776.00,325.5
2019-02-11,09:30:00,DRY,3.53,7.33,21.0,776.00,326.0
2019-02-11,09:35:00,DRY,5.80,7.15,22.0,776.00,232.9
2019-02-11,09:40:00,DRY,4.33,7.30,21.0,776.00,352.1
2019-02-11,09:45:00,DRY,3.00,7.40,21.0,776.00,421.3
2019-02-11,09:50:00,DRY,5.17,7.63,21.0,776.00,450.7
2019-02-11,09:55:00,DRY,5.20,7.75,21.0,776.00,435.9
2019-02-11,10:00:00,DRY,2.93,7.73,21.0,776.00,486.6
2019-02-11,10:05:00,DRY,3.95,7.60,21.0,776.00,493.2
2019-02-11,10:10:00,DRY,4.37,7.90,20.7,776.00,505.6
2019-02-11,10:15:00,DRY,4.50,7.95,20.5,776.50,524.5
2019-02-11,10:20:00,DRY,3.93,7.90,20.7,776.00,555.8
2019-02-11,10:25:00,DRY,3.05,8.10,20.5,776.00,545.0
2019-02-11,10:30:00,DRY,4.37,8.30,20.3,776.00,570.0
2019-02-11,10:35:00,DRY,4.40,8.15,20.5,776.00,569.8
2019-02-11,10:40:00,DRY,5.33,8.17,20.3,776.00,607.2
2019-02-11,10:45:00,DRY,4.05,8.10,21.0,776.00,566.7
2019-02-11,10:50:00,DRY,3.80,8.30,20.7,776.00,632.0
2019-02-11,10:55:00,DRY,4.95,8.50,20.5,776.00,666.3
2019-02-11,11:00:00,DRY,3.87,8.40,20.0,776.33,680.4
2019-02-11,11:05:00,DRY,5.55,8.30,20.5,776.50,684.5
2019-02-11,11:10:00,DRY,3.10,8.50,20.3,776.67,697.0
2019-02-11,11:15:00,DRY,6.50,8.50,20.0,777.00,696.3
2019-02-11,11:20:00,DRY,4.47,8.53,21.0,777.00,690.5
2019-02-11,11:25:00,DRY,2.55,8.50,20.5,777.00,741.3
2019-02-11,11:30:00,DRY,3.27,8.53,20.7,776.67,748.4
2019-02-11,11:35:00,DRY,4.00,8.50,21.5,777.00,760.4
2019-02-11,11:40:00,DRY,5.00,8.93,21.0,777.00,770.3
2019-02-11,11:45:00,DRY,4.00,8.80,21.0,777.00,752.0
2019-02-11,11:50:00,DRY,4.37,9.13,21.0,776.67,788.7
2019-02-11,11:55:00,DRY,2.90,9.20,21.0,776.50,792.8
2019-02-11,12:00:00,DRY,5.10,9.07,20.7,776.00,798.8
2019-02-11,12:05:00,DRY,4.85,9.10,21.0,776.00,806.0
2019-02-11,12:10:00,DRY,3.07,9.17,20.3,776.00,766.3
2019-02-11,12:15:00,DRY,4.55,9.05,21.0,776.00,818.4
2019-02-11,12:20:00,DRY,3.80,9.17,21.0,776.00,824.0
2019-02-11,12:25:00,DRY,3.65,9.30,21.0,776.00,828.0
2019-02-11,12:30:00,DRY,3.57,9.30,21.0,776.00,834.9
2019-02-11,12:35:00,DRY,2.15,9.15,21.0,776.00,838.7
2019-02-11,12:40:00,DRY,4.07,9.20,21.7,776.00,843.2
2019-02-11,12:45:00,DRY,2.20,9.55,20.0,776.00,847.5
2019-02-11,12:50:00,DRY,2.37,9.40,20.7,776.00,849.1
2019-02-11,12:55:00,DRY,2.85,9.40,21.5,776.00,851.4
2019-02-11,13:00:00,DRY,3.53,9.30,22.0,776.00,856.8
2019-02-11,13:05:00,DRY,3.20,9.55,22.0,776.00,859.5
2019-02-11,13:10:00,DRY,1.77,9.37,21.3,776.00,854.8
2019-02-11,13:15:00,DRY,3.55,9.65,21.5,776.00,855.9
2019-02-11,13:20:00,DRY,2.47,9.70,21.0,776.00,860.7
2019-02-11,13:25:00,DRY,3.55,9.65,21.5,776.00,870.0
2019-02-11,13:30:00,DRY,2.70,9.90,22.0,776.00,718.6
2019-02-11,13:35:00,DRY,4.00,9.50,22.0,776.00,872.6
2019-02-11,13:40:00,DRY,1.43,10.17,21.7,776.00,878.3
2019-02-11,13:45:00,DRY,2.25,9.85,21.0,776.00,869.5
2019-02-11,13:50:00,DRY,2.77,9.47,22.0,776.00,855.9
2019-02-11,13:55:00,DRY,2.75,10.05,23.0,776.00,752.2
2019-02-11,14:00:00,DRY,2.90,10.37,22.7,776.00,899.3
2019-02-11,14:05:00,DRY,3.10,10.60,23.0,776.00,847.0
2019-02-11,14:10:00,DRY,2.83,9.87,24.7,776.00,885.9
2019-02-11,14:15:00,DRY,1.40,9.95,23.5,776.00,602.9
2019-02-11,14:20:00,DRY,1.13,9.70,23.0,776.00,795.3
2019-02-11,14:25:00,DRY,2.25,9.75,23.5,776.00,584.5
2019-02-11,14:30:00,DRY,1.57,10.03,23.0,776.00,946.7
2019-02-11,14:35:00,DRY,2.85,10.05,23.0,776.00,679.5
2019-02-11,14:40:00,DRY,2.90,9.73,24.7,776.00,784.6
2019-02-11,14:45:00,DRY,1.75,10.00,25.0,776.00,905.5
2019-02-11,14:50:00,DRY,2.33,10.23,23.7,776.00,702.7
2019-02-11,14:55:00,DRY,1.15,10.10,25.0,776.00,893.9
2019-02-11,15:00:00,DRY,2.23,10.17,25.3,776.00,835.3
2019-02-11,15:05:00,DRY,1.15,10.20,20.5,776.00,801.5
2019-02-11,15:10:00,DRY,1.63,9.90,21.7,776.00,764.2
2019-02-11,15:15:00,DRY,2.35,10.20,22.5,776.00,782.1
2019-02-11,15:20:00,DRY,2.27,10.27,22.3,776.00,764.5
2019-02-11,15:25:00,DRY,2.20,10.20,21.0,776.00,748.5
2019-02-11,15:30:00,DRY,1.53,10.27,21.7,776.00,733.7
2019-02-11,15:35:00,DRY,1.55,10.05,26.5,776.00,725.5
2019-02-11,15:40:00,DRY,2.50,9.70,24.0,776.00,638.1
2019-02-11,15:45:00,DRY,1.40,10.00,21.0,776.00,655.5
2019-02-11,15:50:00,DRY,2.37,9.63,21.7,776.00,628.3
2019-02-11,15:55:00,DRY,1.95,9.75,21.5,776.00,666.7
2019-02-11,16:00:00,DRY,1.87,10.00,21.3,776.00,673.2
2019-02-11,16:05:00,DRY,1.55,10.10,22.0,776.00,650.8
2019-02-11,16:10:00,DRY,2.77,9.87,21.0,776.00,628.3
2019-02-11,16:15:00,DRY,2.90,9.45,21.5,776.00,610.3
2019-02-11,16:20:00,DRY,1.87,9.10,21.7,776.00,495.5
2019-02-11,16:25:00,DRY,2.15,9.15,22.0,776.00,268.7
2019-02-11,16:30:00,DRY,3.37,9.03,21.7,776.00,346.5
2019-02-11,16:35:00,DRY,2.85,8.95,21.5,776.00,409.1
2019-02-11,16:40:00,DRY,2.17,8.83,21.7,776.00,296.9
2019-02-11,16:45:00,DRY,2.25,8.80,22.0,776.00,296.9
2019-02-11,16:50:00,DRY,2.40,8.80,21.3,776.00,485.0
2019-02-11,16:55:00,DRY,2.85,9.25,21.0,776.00,501.1
2019-02-11,17:00:00,DRY,2.33,9.53,20.7,776.00,471.0
2019-02-11,17:05:00,DRY,2.85,9.40,21.0,776.00,428.3
2019-02-11,17:10:00,DRY,3.50,9.40,21.0,776.00,395.4
2019-02-11,17:15:00,DRY,1.30,9.55,22.0,776.00,351.9
2019-02-11,17:20:00,DRY,0.93,9.63,23.0,776.00,358.8
2019-02-11,17:25:00,DRY,1.75,9.35,20.5,776.00,339.4
2019-02-11,17:30:00,DRY,1.27,9.23,20.7,776.00,314.7
2019-02-11,17:35:00,DRY,2.40,9.15,21.0,776.00,292.4
2019-02-11,17:40:00,DRY,2.23,9.20,21.0,776.00,273.6
2019-02-11,17:45:00,DRY,1.30,9.25,21.5,776.00,256.6
2019-02-11,17:50:00,DRY,2.10,9.33,21.0,776.00,236.4
2019-02-11,17:55:00,DRY,1.70,9.65,21.0,776.00,218.1
2019-02-11,18:00:00,DRY,2.00,9.77,20.3,776.00,196.6
2019-02-11,18:05:00,DRY,1.30,9.55,20.5,776.00,170.5
2019-02-11,18:10:00,DRY,2.30,9.30,20.7,776.00,151.8
2019-02-11,18:15:00,DRY,0.90,8.95,21.0,776.00,136.1
2019-02-11,18:20:00,DRY,1.43,9.10,21.0,776.00,117.8
2019-02-11,18:25:00,DRY,1.50,8.60,21.0,776.00,94.7
2019-02-11,18:30:00,DRY,1.80,8.57,21.0,776.00,71.7
2019-02-11,18:35:00,DRY,1.95,8.25,21.0,776.00,30.6
2019-02-11,18:40:00,DRY,1.60,7.87,22.0,776.00,14.7
2019-02-11,18:45:00,DRY,1.60,7.90,22.0,776.00,11.6
2019-02-11,18:50:00,DRY,1.40,7.83,22.0,776.00,12.8
2019-02-11,18:55:00,DRY,2.45,7.75,22.0,776.00,8.2
2019-02-11,19:00:00,DRY,2.73,7.73,22.0,776.00,4.9
2019-02-11,19:05:00,DRY,2.85,7.70,22.0,776.00,3.2
2019-02-11,19:10:00,DRY,2.90,7.63,22.0,776.00,2.7
2019-02-11,19:15:00,DRY,2.40,7.55,22.0,776.00,1.4